Weather History for KADM - January, 2014

Change the Weather History Date:

Friday, January 10, 2014

  Actual Average Record
Temperature  
Mean Temperature 50 °F -  
Max Temperature 66 °F 49 °F 73 °F (2005)
Min Temperature 32 °F 32 °F 21 °F (2015)
Degree Days  
Heating Degree Days 16    
Moisture  
Dew Point 42 °F    
Average Humidity 92    
Maximum Humidity 100    
Minimum Humidity 55    
Precipitation  
Precipitation 0.00 in - - ()
Sea Level Pressure  
Sea Level Pressure 29.83 in    
Wind  
Wind Speed 5 mph (SSE)    
Max Wind Speed 16 mph    
Max Gust Speed 25 mph    
Visibility 5 miles    
Events Fog , Rain , Thunderstorm    
Averages and records for this station are not official NWS values.
T = Trace of Precipitation, MM = Missing Value Source: NWS Daily Summary

Daily Weather History Graph

Daily Weather History Graph

Search for Another Location

Airport or City:

Trip Planner

Search our weather history database for the weather conditions in past years. The results will help you decide how hot, cold, wet, or windy it might be!

Date:

Astronomy

Jan. 10, 2014 Rise Set
Actual Time 7:34 AM CST 5:36 PM CST
Civil Twilight 7:07 AM CST 6:04 PM CST
Nautical Twilight 6:36 AM CST 6:35 PM CST
Astronomical Twilight 6:05 AM CST 7:05 PM CST
Moon 1:38 PM CST (1/10) 2:47 AM CST (1/10)
Length of Visible Light 10h 56m
Length of Day
10h 02m
Waxing Gibbous, 75% of the Moon is Illuminated
Jan 10
Waxing Gibbous
Jan 15
Full
Jan 23
Last Quarter
Jan 30
New
Feb 6
First Quarter

Hourly Weather History & Observations

Time (CST) Temp. Windchill Dew Point Humidity Pressure Visibility Wind Dir Wind Speed Gust Speed Precip Events Conditions
12:15 AM 38.7 °F 35.2 °F 38.7 °F 100% 30.00 in 0.5 mi ESE 4.6 mph - N/A Fog Fog
12:35 AM 38.8 °F 36.5 °F 38.8 °F 100% 30.00 in 0.2 mi ESE 3.5 mph - N/A   Unknown
12:55 AM 38.8 °F 34.6 °F 38.8 °F 100% 29.98 in 0.2 mi ESE 5.8 mph - N/A Fog Fog
1:15 AM 39.0 °F 34.0 °F 39.0 °F 100% 29.96 in 0.2 mi ESE 6.9 mph - N/A Fog Fog
1:35 AM 39.2 °F 35.9 °F 39.2 °F 100% 29.95 in 0.2 mi ESE 4.6 mph - N/A Fog Fog
1:55 AM 39.2 °F 35.9 °F 39.2 °F 100% 29.95 in 0.2 mi SE 4.6 mph - N/A Fog Fog
2:15 AM 39.6 °F 37.4 °F 39.6 °F 100% 29.95 in 0.2 mi SE 3.5 mph - N/A Fog Fog
2:35 AM 39.7 °F 37.6 °F 39.7 °F 100% 29.94 in 0.2 mi ESE 3.5 mph - N/A Fog Fog
2:55 AM 40.1 °F 36.9 °F 40.1 °F 100% 29.93 in 0.5 mi SE 4.6 mph - N/A Fog Fog
3:15 AM 40.1 °F 38.0 °F 40.1 °F 100% 29.92 in 0.5 mi ESE 3.5 mph - N/A Fog Fog
3:35 AM 40.3 °F 36.3 °F 40.3 °F 100% 29.92 in 0.5 mi SE 5.8 mph - N/A Fog Fog
3:55 AM 40.6 °F 36.7 °F 40.6 °F 100% 29.91 in 0.5 mi SE 5.8 mph - N/A Fog Fog
4:15 AM 40.6 °F 36.7 °F 40.6 °F 100% 29.90 in 0.5 mi SE 5.8 mph - N/A Fog Fog
4:35 AM 41.0 °F 36.4 °F 41.0 °F 100% 29.89 in 0.8 mi SE 6.9 mph - N/A   Overcast
4:55 AM 41.0 °F 37.1 °F 41.0 °F 100% 29.88 in 1.0 mi SE 5.8 mph - N/A   Overcast
5:15 AM 41.4 °F 37.6 °F 41.4 °F 100% 29.86 in 0.8 mi SE 5.8 mph - N/A   Overcast
5:35 AM 41.9 °F 40.0 °F 41.9 °F 100% 29.86 in 0.8 mi ESE 3.5 mph - N/A   Overcast
6:55 AM 41.0 °F - 41.0 °F 100% 29.82 in 1.2 mi Calm Calm - N/A Rain , Thunderstorm Light Thunderstorms and Rain
7:55 AM 42.8 °F 40.1 °F 42.8 °F 100% 29.82 in 5.0 mi NW 4.6 mph - N/A Rain , Thunderstorm Light Thunderstorms and Rain
8:55 AM 44.6 °F - 44.6 °F 100% 29.82 in 7.0 mi Calm Calm - N/A Rain Rain
9:55 AM 50.0 °F - 50.0 °F 100% 29.79 in 5.0 mi South 10.4 mph - N/A Rain Light Rain
10:55 AM 57.2 °F - 57.2 °F 100% 29.77 in 10.0 mi SSW 9.2 mph - N/A   Scattered Clouds
11:55 AM 59.0 °F - 59.0 °F 100% 29.71 in 10.0 mi South 8.1 mph - N/A   Clear
12:55 PM 60.8 °F - 59.0 °F 94% 29.68 in 10.0 mi SSW 11.5 mph - N/A   Scattered Clouds
1:55 PM 62.6 °F - 59.0 °F 88% 29.62 in 10.0 mi SSW 13.8 mph - N/A   Mostly Cloudy
2:55 PM 64.4 °F - 57.2 °F 77% 29.61 in 10.0 mi SW 16.1 mph 21.9 mph N/A   Scattered Clouds
3:55 PM 66.2 °F - 55.4 °F 68% 29.62 in 10.0 mi SW 11.5 mph - N/A   Scattered Clouds
4:55 PM 60.8 °F - 44.6 °F 55% 29.67 in 10.0 mi NW 16.1 mph 25.3 mph N/A   Clear
5:55 PM 55.4 °F - 41.0 °F 58% 29.70 in 10.0 mi NW 9.2 mph - N/A   Clear
6:55 PM 51.8 °F - 37.4 °F 58% 29.73 in 10.0 mi NNW 3.5 mph - N/A   Clear
7:55 PM 46.4 °F - 35.6 °F 66% 29.77 in 10.0 mi Calm Calm - N/A   Clear
8:55 PM 42.8 °F - 35.6 °F 76% 29.79 in 10.0 mi Calm Calm - N/A   Clear
9:55 PM 37.4 °F - 35.6 °F 93% 29.80 in 10.0 mi Calm Calm - N/A   Clear
10:35 PM 36.0 °F - 34.7 °F 95% 29.80 in 10.0 mi Calm Calm - N/A   Clear
10:55 PM 36.5 °F - 34.9 °F 94% 29.80 in 10.0 mi Calm Calm - N/A   Clear
11:15 PM 34.3 °F - 33.3 °F 96% 29.81 in 10.0 mi Calm Calm - N/A   Clear
11:35 PM 33.3 °F - 32.5 °F 97% 29.82 in 10.0 mi Calm Calm - N/A   Clear
11:55 PM 32.0 °F - 31.6 °F 99% 29.82 in 10.0 mi Calm Calm - N/A   Clear